Emmonak, AK

6:10 AM AKDT on May 30, 2017 (GMT -0800)
Emmonak

Weather History for PAEM - September, 2013

Change the Weather History Date:

Saturday, September 14, 2013

  Actual Average Record
Temperature  
Mean Temperature 48 °F -  
Max Temperature 51 °F 47 °F 57 °F (2014)
Min Temperature 44 °F 38 °F 35 °F (2003)
Degree Days  
Heating Degree Days 18    
Moisture  
Dew Point 40 °F    
Average Humidity 77    
Maximum Humidity 87    
Minimum Humidity 58    
Precipitation  
Precipitation 0.00 in - - ()
Sea Level Pressure  
Sea Level Pressure 30.10 in    
Wind  
Wind Speed 4 mph (West)    
Max Wind Speed 8 mph    
Max Gust Speed -    
Visibility 10 miles    
Events      
Averages and records for this station are not official NWS values.
T = Trace of Precipitation, MM = Missing Value Source: NWS Daily Summary

Daily Weather History Graph

Daily Weather History Graph

Search for Another Location

Airport or City:

Trip Planner

Search our weather history database for the weather conditions in past years. The results will help you decide how hot, cold, wet, or windy it might be!

Date:

Astronomy

Sep. 14, 2013 Rise Set
Actual Time 8:21 AM AKDT 9:23 PM AKDT
Civil Twilight 7:34 AM AKDT 10:10 PM AKDT
Nautical Twilight 6:36 AM AKDT 11:07 PM AKDT
Astronomical Twilight 5:26 AM AKDT 12:16 AM AKDT
Moon 7:23 PM AKDT (9/14) 1:45 AM AKDT (9/14)
Length of Visible Light 14h 35m
Length of Day
13h 02m
Waxing Gibbous, 74% of the Moon is Illuminated
Sep 14
Waxing Gibbous
Sep 19
Full
Sep 26
Last Quarter
Oct 4
New
Oct 11
First Quarter

Hourly Weather History & Observations

Time (AKDT) Temp. Windchill Dew Point Humidity Pressure Visibility Wind Dir Wind Speed Gust Speed Precip Events Conditions
12:16 AM 46.4 °F 43.5 °F 41.0 °F 81% 30.04 in 10.0 mi WNW 5.8 mph - N/A   Overcast
12:36 AM 46.4 °F 43.5 °F 41.0 °F 81% 30.04 in 10.0 mi West 5.8 mph - N/A   Overcast
12:56 AM 44.6 °F 42.2 °F 41.0 °F 87% 30.04 in 10.0 mi West 4.6 mph - N/A   Overcast
1:16 AM 44.6 °F 43.1 °F 39.2 °F 81% 30.04 in 10.0 mi West 3.5 mph - N/A   Overcast
1:36 AM 44.6 °F 43.1 °F 39.2 °F 81% 30.04 in 10.0 mi WNW 3.5 mph - N/A   Overcast
1:56 AM 44.6 °F 43.1 °F 39.2 °F 81% 30.04 in 10.0 mi West 3.5 mph - N/A   Overcast
2:16 AM 44.6 °F 43.1 °F 39.2 °F 81% 30.04 in 10.0 mi West 3.5 mph - N/A   Overcast
2:36 AM 44.6 °F - 39.2 °F 81% 30.05 in 10.0 mi Calm Calm - N/A   Overcast
2:56 AM 44.6 °F 42.2 °F 39.2 °F 81% 30.05 in 10.0 mi West 4.6 mph - N/A   Overcast
3:16 AM 44.6 °F 43.1 °F 39.2 °F 81% 30.06 in 10.0 mi WNW 3.5 mph - N/A   Overcast
3:36 AM 44.6 °F 43.1 °F 39.2 °F 81% 30.06 in 10.0 mi NW 3.5 mph - N/A   Overcast
3:56 AM 44.6 °F - 39.2 °F 81% 30.06 in 10.0 mi Calm Calm - N/A   Overcast
4:16 AM 44.6 °F - 39.2 °F 81% 30.06 in 10.0 mi Calm Calm - N/A   Overcast
4:36 AM 44.6 °F - 39.2 °F 81% 30.07 in 10.0 mi Calm Calm - N/A   Overcast
4:56 AM 44.6 °F - 39.2 °F 81% 30.07 in 10.0 mi Calm Calm - N/A   Overcast
5:16 AM 44.6 °F 42.2 °F 39.2 °F 81% 30.07 in 10.0 mi WNW 4.6 mph - N/A   Overcast
5:36 AM 44.6 °F 43.1 °F 39.2 °F 81% 30.08 in 10.0 mi WNW 3.5 mph - N/A   Overcast
5:56 AM 44.6 °F - 39.2 °F 81% 30.08 in 10.0 mi Calm Calm - N/A   Overcast
6:16 AM 44.6 °F 43.1 °F 39.2 °F 81% 30.08 in 10.0 mi West 3.5 mph - N/A   Overcast
6:36 AM 44.6 °F 43.1 °F 39.2 °F 81% 30.08 in 10.0 mi West 3.5 mph - N/A   Overcast
6:56 AM 44.6 °F 43.1 °F 39.2 °F 81% 30.08 in 10.0 mi West 3.5 mph - N/A   Overcast
7:16 AM 44.6 °F 43.1 °F 39.2 °F 81% 30.08 in 10.0 mi West 3.5 mph - N/A   Overcast
7:36 AM 44.6 °F 42.2 °F 39.2 °F 81% 30.08 in 10.0 mi West 4.6 mph - N/A   Overcast
7:56 AM 44.6 °F 42.2 °F 39.2 °F 81% 30.08 in 10.0 mi West 4.6 mph - N/A   Overcast
8:16 AM 44.6 °F 43.1 °F 39.2 °F 81% 30.09 in 10.0 mi West 3.5 mph - N/A   Overcast
8:36 AM 44.6 °F 42.2 °F 39.2 °F 81% 30.09 in 10.0 mi WSW 4.6 mph - N/A   Overcast
8:56 AM 44.6 °F 43.1 °F 39.2 °F 81% 30.09 in 10.0 mi West 3.5 mph - N/A   Overcast
9:16 AM 44.6 °F 43.1 °F 39.2 °F 81% 30.10 in 10.0 mi West 3.5 mph - N/A   Overcast
9:36 AM 44.6 °F 43.1 °F 39.2 °F 81% 30.10 in 10.0 mi WSW 3.5 mph - N/A   Overcast
9:56 AM 46.4 °F 45.2 °F 41.0 °F 81% 30.10 in 10.0 mi WSW 3.5 mph - N/A   Overcast
10:16 AM 46.4 °F 45.2 °F 41.0 °F 81% 30.11 in 10.0 mi WSW 3.5 mph - N/A   Overcast
10:36 AM 46.4 °F 45.2 °F 42.8 °F 87% 30.11 in 10.0 mi WSW 3.5 mph - N/A   Overcast
10:56 AM 46.4 °F 44.3 °F 42.8 °F 87% 30.11 in 10.0 mi WSW 4.6 mph - N/A   Overcast
11:16 AM 48.2 °F - 41.0 °F 76% 30.11 in 10.0 mi WSW 4.6 mph - N/A   Overcast
11:36 AM 48.2 °F - 41.0 °F 76% 30.11 in 10.0 mi West 3.5 mph - N/A   Overcast
11:56 AM 48.2 °F - 41.0 °F 76% 30.12 in 10.0 mi West 4.6 mph - N/A   Overcast
12:16 PM 48.2 °F - 41.0 °F 76% 30.12 in 10.0 mi West 4.6 mph - N/A   Overcast
12:36 PM 48.2 °F - 41.0 °F 76% 30.12 in 10.0 mi West 4.6 mph - N/A   Overcast
12:56 PM 48.2 °F - 41.0 °F 76% 30.12 in 10.0 mi WNW 4.6 mph - N/A   Overcast
1:16 PM 48.2 °F - 39.2 °F 71% 30.12 in 10.0 mi West 3.5 mph - N/A   Overcast
1:36 PM 50.0 °F - 41.0 °F 71% 30.12 in 10.0 mi NW 3.5 mph - N/A   Overcast
1:56 PM 50.0 °F - 39.2 °F 66% 30.12 in 10.0 mi West 3.5 mph - N/A   Overcast
2:16 PM 51.8 °F - 39.2 °F 62% 30.12 in 10.0 mi WSW 3.5 mph - N/A   Overcast
2:36 PM 51.8 °F - 37.4 °F 58% 30.12 in 7.0 mi WSW 4.6 mph - N/A   Overcast
2:56 PM 51.8 °F - 39.2 °F 62% 30.13 in 10.0 mi SW 4.6 mph - N/A   Overcast
3:16 PM 51.8 °F - 39.2 °F 62% 30.12 in 10.0 mi WSW 4.6 mph - N/A   Overcast
3:36 PM 51.8 °F - 37.4 °F 58% 30.13 in 10.0 mi West 4.6 mph - N/A   Overcast
3:56 PM 51.8 °F - 37.4 °F 58% 30.12 in 10.0 mi SW 3.5 mph - N/A   Overcast
4:16 PM 51.8 °F - 39.2 °F 62% 30.12 in 10.0 mi WSW 5.8 mph - N/A   Overcast
4:36 PM 51.8 °F - 39.2 °F 62% 30.13 in 10.0 mi WSW 8.1 mph - N/A   Overcast
4:56 PM 51.8 °F - 39.2 °F 62% 30.12 in 10.0 mi West 6.9 mph - N/A   Overcast
5:16 PM 51.8 °F - 39.2 °F 62% 30.12 in 10.0 mi West 5.8 mph - N/A   Overcast
5:36 PM 50.0 °F - 39.2 °F 66% 30.12 in 10.0 mi West 5.8 mph - N/A   Overcast
5:56 PM 50.0 °F - 39.2 °F 66% 30.12 in 10.0 mi WSW 5.8 mph - N/A   Overcast
6:16 PM 50.0 °F - 39.2 °F 66% 30.12 in 10.0 mi WSW 4.6 mph - N/A   Overcast
6:36 PM 50.0 °F - 41.0 °F 71% 30.12 in 10.0 mi West 5.8 mph - N/A   Overcast
6:56 PM 50.0 °F - 41.0 °F 71% 30.12 in 10.0 mi West 4.6 mph - N/A   Overcast
7:16 PM 50.0 °F - 42.8 °F 76% 30.12 in 10.0 mi West 5.8 mph - N/A   Overcast
7:36 PM 48.2 °F - 42.8 °F 82% 30.12 in 10.0 mi West 5.8 mph - N/A   Overcast
7:56 PM 48.2 °F - 42.8 °F 82% 30.13 in 10.0 mi West 5.8 mph - N/A   Overcast
8:16 PM 48.2 °F - 42.8 °F 82% 30.13 in 10.0 mi West 5.8 mph - N/A   Overcast
8:36 PM 48.2 °F - 42.8 °F 82% 30.13 in 10.0 mi West 4.6 mph - N/A   Overcast
8:56 PM 48.2 °F - 42.8 °F 82% 30.13 in 10.0 mi NW 3.5 mph - N/A   Overcast
9:16 PM 48.2 °F - 42.8 °F 82% 30.13 in 10.0 mi Calm Calm - N/A   Overcast
9:36 PM 48.2 °F - 42.8 °F 82% 30.13 in 10.0 mi WNW 5.8 mph - N/A   Overcast
9:56 PM 46.4 °F 42.9 °F 42.8 °F 87% 30.14 in 10.0 mi WNW 6.9 mph - N/A   Overcast
10:16 PM 46.4 °F 43.5 °F 42.8 °F 87% 30.14 in 10.0 mi WNW 5.8 mph - N/A   Overcast
10:36 PM 46.4 °F 44.3 °F 42.8 °F 87% 30.14 in 10.0 mi West 4.6 mph - N/A   Overcast
10:56 PM 46.4 °F 45.2 °F 42.8 °F 87% 30.14 in 10.0 mi West 3.5 mph - N/A   Overcast
11:16 PM 46.4 °F 44.3 °F 42.8 °F 87% 30.14 in 8.0 mi West 4.6 mph - N/A   Overcast
11:36 PM 46.4 °F 45.2 °F 42.8 °F 87% 30.14 in 10.0 mi West 3.5 mph - N/A   Overcast
11:56 PM 46.4 °F 45.2 °F 42.8 °F 87% 30.14 in 10.0 mi NW 3.5 mph - N/A   Overcast